Flag for Germany Weather past 2 weeks in Leipzig, Saxony, Germany

Now
66 °F

Sunny.


Feels Like: 66 °F
Forecast: 52 / 78 °F
Wind: 7 mph from Northwest

Location: Leipzig-Schkeuditz

Current Time: Jul 31, 2015 at 7:58:59 PM

Latest Report: Jul 31, 2015 at 7:20 PM


Visibility: 10 mi

Pressure: 30.07 "Hg

Humidity: 40%

Dew point: 41 °F

Location of LeipzigLocation

Historic Weather in Leipzig — Graph

°F

Leipzig temperature yesterday

Maximum temperature yesterday: 70 °F (at 2:50 PM)
Minimum temperature yesterday: 52 °F (at 3:20 AM)
Average temperature yesterday: 60 °F

Past Weeks' High & Low Weather Summary

 TemperatureHumidityPressure
High93 °F (Jul 17, 5:20 PM)100% (Jul 23, 1:50 AM)30.12 "Hg (Jul 23, 1:50 AM)
Low48 °F (Jul 31, 3:50 AM)24% (Jul 17, 5:50 PM)29.59 "Hg (Jul 25, 3:50 AM)
Average68 °F65%29.87 "Hg
* Reported Jul 16 6:20 PM — Jul 31 6:20 PM, Leipzig, Weather by CustomWeather, © 2015

Note: Actual official high and low records may vary slightly from our data, if they occured in-between our weather recording intervals... More about our weather records

Advertising

Leipzig weather history for previous 24 hours

 ConditionsComfort  
Time TempWeatherWind HumidityBarometerVisibility
6:20 PM
Fri, Jul 31
68 °FSunny.5 mph38%30.07 "Hg10 mi
5:50 PM66 °FSunny.7 mph40%30.07 "Hg10 mi
5:20 PM68 °FSunny.5 mph38%30.07 "Hg10 mi
4:50 PM68 °FPassing clouds.5 mph38%30.07 "HgN/A
4:20 PM68 °FScattered clouds.7 mph38%30.07 "HgN/A
3:50 PM68 °FScattered clouds.6 mph40%30.07 "HgN/A
3:20 PM68 °FScattered clouds.7 mph38%30.09 "HgN/A
2:50 PM66 °FBroken clouds.8 mph40%30.09 "HgN/A
2:20 PM66 °FPartly sunny.2 mph43%30.09 "HgN/A
1:50 PM66 °FScattered clouds.7 mph43%30.09 "HgN/A
1:20 PM64 °FBroken clouds.3 mph46%30.09 "HgN/A
12:50 PM66 °FPartly sunny.8 mph46%30.09 "HgN/A
12:20 PM64 °FPartly sunny.9 mph49%30.09 "HgN/A
11:50 AM63 °FPartly sunny.5 mph52%30.12 "HgN/A
11:20 AM61 °FPartly sunny.6 mph55%30.12 "HgN/A
10:50 AM61 °FPartly sunny.7 mph55%30.09 "HgN/A
10:20 AM61 °FPartly sunny.7 mph55%30.09 "HgN/A
9:50 AM59 °FPartly sunny.6 mph63%30.12 "HgN/A
9:20 AM57 °FPartly sunny.6 mph67%30.12 "HgN/A
8:50 AM57 °FScattered clouds.6 mph72%30.09 "HgN/A
8:20 AM55 °FScattered clouds.6 mph77%30.09 "HgN/A
7:50 AM54 °FScattered clouds.7 mph82%30.09 "HgN/A
7:20 AM52 °FSunny.7 mph88%30.09 "Hg10 mi
6:50 AM50 °FSunny.6 mph94%30.09 "Hg10 mi
6:20 AM48 °FClear.6 mph87%30.07 "Hg10 mi
5:50 AM48 °FClear.8 mph94%30.07 "Hg10 mi
5:20 AM48 °FClear.8 mph87%30.07 "Hg10 mi
4:50 AM48 °FClear.8 mph94%30.07 "Hg10 mi
4:20 AM48 °FClear.6 mph87%30.07 "Hg10 mi
3:50 AM48 °FClear.7 mph87%30.07 "Hg10 mi
3:20 AM50 °FClear.6 mph82%30.04 "Hg10 mi
2:50 AM50 °FClear.7 mph88%30.04 "Hg10 mi
2:20 AM52 °FClear.7 mph82%30.04 "Hg10 mi
1:50 AM52 °FClear.7 mph77%30.04 "Hg10 mi
1:20 AM52 °FClear.9 mph82%30.04 "Hg10 mi
12:50 AM52 °FClear.9 mph77%30.01 "Hg10 mi
12:20 AM52 °FClear.8 mph77%30.01 "Hg10 mi
11:20 PM
Thu, Jul 30
55 °FClear.9 mph67%30.01 "Hg10 mi
10:50 PM57 °FClear.10 mph67%30.01 "Hg10 mi
10:20 PM57 °FClear.10 mph63%29.98 "Hg10 mi
9:50 PM61 °FSunny.13 mph55%29.98 "Hg10 mi
9:20 PM63 °FSunny.13 mph49%29.98 "Hg10 mi
8:50 PM63 °FSunny.13 mph49%29.95 "Hg10 mi
8:20 PM63 °FSunny.12 mph52%29.95 "Hg10 mi
7:50 PM64 °FSunny.12 mph49%29.95 "Hg10 mi
7:20 PM64 °FSunny.14 mph46%29.95 "Hg10 mi
Weather by CustomWeather, © 2015

See weather overviewHow to use our weather pages